THA110 VTBS-VTCC

Flight info

Callsign THA110
Flight time 1h 0m
Altitude 36000
Route OLVUK Y26 MARNI MARNI2B
Aircraft A21N/M-SDFGHIJ4J5M1RWY/LB1

Departure

Time 2026-05-04 18:47
Airport Suvarnabhumi Airport (VTBS)

Arrival

Time 2026-05-04 19:47
Airport Chiang Mai International Airport (VTCC)
Time Latitude Longitude Altitude Speed Heading
2026-05-04 18:30 13.68707 100.75389 18 ft 0 kts 284°
2026-05-04 18:35 13.68705 100.75398 20 ft 4 kts 285°
2026-05-04 18:35 13.68698 100.75425 18 ft 4 kts 285°
2026-05-04 18:35 13.68691 100.75452 20 ft 4 kts 279°
2026-05-04 18:35 13.68691 100.75478 18 ft 4 kts 248°
2026-05-04 18:36 13.68704 100.75490 19 ft 4 kts 194°
2026-05-04 18:36 13.68720 100.75494 18 ft 0 kts 194°
2026-05-04 18:38 13.68718 100.75493 18 ft 1 kts 194°
2026-05-04 18:38 13.68695 100.75487 18 ft 5 kts 194°
2026-05-04 18:39 13.68651 100.75476 18 ft 8 kts 194°
2026-05-04 18:39 13.68592 100.75460 18 ft 10 kts 194°
2026-05-04 18:39 13.68527 100.75428 18 ft 12 kts 235°
2026-05-04 18:39 13.68534 100.75340 18 ft 14 kts 284°
2026-05-04 18:40 13.68559 100.75239 18 ft 16 kts 284°
2026-05-04 18:40 13.68589 100.75123 20 ft 18 kts 284°
2026-05-04 18:40 13.68621 100.74995 19 ft 19 kts 284°
2026-05-04 18:40 13.68652 100.74866 19 ft 19 kts 283°
2026-05-04 18:41 13.68687 100.74733 19 ft 19 kts 284°
2026-05-04 18:41 13.68722 100.74593 19 ft 21 kts 284°
2026-05-04 18:41 13.68756 100.74456 19 ft 20 kts 284°
2026-05-04 18:41 13.68789 100.74327 19 ft 19 kts 284°
2026-05-04 18:42 13.68819 100.74207 21 ft 17 kts 284°
2026-05-04 18:42 13.68846 100.74133 19 ft 9 kts 318°
2026-05-04 18:42 13.68913 100.74128 20 ft 11 kts 13°
2026-05-04 18:42 13.68996 100.74149 19 ft 13 kts 14°
2026-05-04 18:43 13.69092 100.74174 18 ft 15 kts 14°
2026-05-04 18:43 13.69202 100.74203 18 ft 17 kts 14°
2026-05-04 18:43 13.69324 100.74235 18 ft 19 kts 14°
2026-05-04 18:43 13.69457 100.74271 18 ft 21 kts 14°
2026-05-04 18:44 13.69602 100.74308 18 ft 22 kts 14°
2026-05-04 18:44 13.69706 100.74336 18 ft 23 kts 14°
2026-05-04 18:44 13.69926 100.74394 19 ft 26 kts 14°
2026-05-04 18:44 13.70073 100.74432 19 ft 18 kts 14°
2026-05-04 18:45 13.70166 100.74456 19 ft 9 kts 14°
2026-05-04 18:45 13.70229 100.74440 19 ft 11 kts 296°
2026-05-04 18:45 13.70247 100.74372 19 ft 10 kts 284°
2026-05-04 18:45 13.70260 100.74301 20 ft 10 kts 249°
2026-05-04 18:46 13.70190 100.74271 20 ft 12 kts 194°
2026-05-04 18:46 13.69931 100.74206 18 ft 75 kts 193°
2026-05-04 18:46 13.69199 100.74013 18 ft 139 kts 194°
2026-05-04 18:46 13.68126 100.73753 251 ft 165 kts 192°
2026-05-04 18:47 13.67048 100.73457 939 ft 162 kts 191°
2026-05-04 18:47 13.65949 100.73155 1612 ft 164 kts 191°
2026-05-04 18:47 13.64893 100.72689 2240 ft 171 kts 218°
2026-05-04 18:47 13.64290 100.71610 2892 ft 184 kts 258°
2026-05-04 18:48 13.64352 100.70300 3695 ft 189 kts 278°
2026-05-04 18:48 13.64575 100.68955 4588 ft 192 kts 279°
2026-05-04 18:48 13.64806 100.67568 5401 ft 201 kts 279°
2026-05-04 18:48 13.65042 100.66078 6018 ft 222 kts 279°
2026-05-04 18:49 13.65302 100.64412 6481 ft 250 kts 280°
2026-05-04 18:49 13.65922 100.62689 6847 ft 274 kts 305°
2026-05-04 18:49 13.67224 100.61173 7370 ft 288 kts 317°
2026-05-04 18:49 13.68698 100.59770 8124 ft 295 kts 319°
2026-05-04 18:50 13.70232 100.58338 8976 ft 299 kts 319°
2026-05-04 18:50 13.71786 100.56900 9841 ft 301 kts 319°
2026-05-04 18:50 13.73482 100.55591 10512 ft 311 kts 333°
2026-05-04 18:50 13.75509 100.54650 10891 ft 330 kts 340°
2026-05-04 18:51 13.77729 100.53816 11288 ft 349 kts 341°
2026-05-04 18:51 13.80015 100.52982 11933 ft 356 kts 342°
2026-05-04 18:51 13.82369 100.52121 12726 ft 360 kts 341°
2026-05-04 18:51 13.84743 100.51247 13513 ft 363 kts 341°
2026-05-04 18:52 13.87122 100.50368 14278 ft 368 kts 341°
2026-05-04 18:52 13.89467 100.49289 14977 ft 373 kts 328°
2026-05-04 18:52 13.91454 100.47542 15667 ft 378 kts 314°
2026-05-04 18:52 13.93176 100.45505 16335 ft 383 kts 310°
2026-05-04 18:53 13.94872 100.43372 16984 ft 386 kts 309°
2026-05-04 18:53 13.96573 100.41215 17594 ft 390 kts 311°
2026-05-04 18:53 13.98589 100.39384 18162 ft 394 kts 328°
2026-05-04 18:53 14.01122 100.38202 18753 ft 397 kts 343°
2026-05-04 18:54 14.03772 100.37495 19344 ft 400 kts 346°
2026-05-04 18:54 14.06492 100.36822 19907 ft 404 kts 346°
2026-05-04 18:54 14.09247 100.36128 20441 ft 409 kts 346°
2026-05-04 18:54 14.12028 100.35405 20979 ft 413 kts 345°
2026-05-04 18:55 14.14824 100.34668 21526 ft 417 kts 345°
2026-05-04 18:55 14.20479 100.33166 22597 ft 423 kts 345°
2026-05-04 18:55 14.23343 100.32404 23078 ft 426 kts 344°
2026-05-04 18:56 14.26226 100.31637 23531 ft 430 kts 344°
2026-05-04 18:56 14.29135 100.30865 23983 ft 433 kts 344°
2026-05-04 18:56 14.32024 100.30100 24409 ft 436 kts 344°
2026-05-04 18:56 14.34968 100.29319 24841 ft 438 kts 344°
2026-05-04 18:57 14.37916 100.28535 25291 ft 440 kts 344°
2026-05-04 18:57 14.40887 100.27745 25700 ft 443 kts 344°
2026-05-04 18:57 14.43879 100.26947 26108 ft 445 kts 343°
2026-05-04 18:57 14.46882 100.26145 26501 ft 447 kts 343°
2026-05-04 18:58 14.49908 100.25339 26880 ft 450 kts 343°
2026-05-04 18:58 14.52956 100.24529 27266 ft 452 kts 343°
2026-05-04 18:58 14.56010 100.23715 27656 ft 454 kts 343°
2026-05-04 18:58 14.59072 100.22903 28003 ft 456 kts 343°
2026-05-04 18:59 14.62156 100.22082 28360 ft 458 kts 343°
2026-05-04 18:59 14.65201 100.21265 28689 ft 460 kts 342°
2026-05-04 18:59 14.68268 100.20290 29035 ft 461 kts 340°
2026-05-04 18:59 14.71336 100.19273 29384 ft 463 kts 340°
2026-05-04 19:00 14.74409 100.18247 29703 ft 465 kts 340°
2026-05-04 19:00 14.77504 100.17217 30020 ft 466 kts 340°
2026-05-04 19:00 14.80571 100.16198 30349 ft 467 kts 339°
2026-05-04 19:00 14.83664 100.15170 30748 ft 466 kts 340°
2026-05-04 19:01 14.86762 100.14142 31152 ft 465 kts 340°
2026-05-04 19:01 14.89832 100.13120 31560 ft 464 kts 339°
2026-05-04 19:01 14.92918 100.12088 31919 ft 464 kts 340°
2026-05-04 19:01 14.95998 100.11062 32300 ft 463 kts 340°
2026-05-04 19:02 14.99037 100.10049 32673 ft 461 kts 339°
2026-05-04 19:02 15.02048 100.09044 33084 ft 460 kts 340°
2026-05-04 19:02 15.05087 100.08033 33538 ft 457 kts 340°
2026-05-04 19:02 15.08092 100.07033 33901 ft 455 kts 339°
2026-05-04 19:03 15.11114 100.06026 34232 ft 454 kts 339°
2026-05-04 19:03 15.14134 100.05018 34544 ft 454 kts 339°
2026-05-04 19:03 15.17147 100.04012 34871 ft 453 kts 339°
2026-05-04 19:03 15.20143 100.03014 35175 ft 453 kts 339°
2026-05-04 19:04 15.23143 100.02012 35456 ft 452 kts 339°
2026-05-04 19:04 15.26132 100.01013 35726 ft 451 kts 339°
2026-05-04 19:04 15.29087 100.00028 35912 ft 453 kts 339°
2026-05-04 19:04 15.32104 99.99024 35936 ft 453 kts 340°
2026-05-04 19:05 15.38078 99.97029 35898 ft 452 kts 340°
2026-05-04 19:05 15.44082 99.95022 35870 ft 452 kts 339°
2026-05-04 19:06 15.50090 99.93007 35873 ft 452 kts 339°
2026-05-04 19:06 15.56050 99.91013 35864 ft 453 kts 339°
2026-05-04 19:07 15.62039 99.89008 35867 ft 453 kts 340°
2026-05-04 19:07 15.68046 99.86995 35853 ft 453 kts 340°
2026-05-04 19:08 15.74008 99.84996 35853 ft 453 kts 339°
2026-05-04 19:08 15.80007 99.82984 35851 ft 454 kts 340°
2026-05-04 19:09 15.86025 99.80965 35844 ft 453 kts 340°
2026-05-04 19:09 15.92036 99.78946 35829 ft 453 kts 339°
2026-05-04 19:10 15.98011 99.76933 35814 ft 453 kts 339°
2026-05-04 19:10 16.04018 99.74911 35809 ft 453 kts 339°
2026-05-04 19:11 16.10018 99.72892 35807 ft 453 kts 339°
2026-05-04 19:11 16.15986 99.70882 35802 ft 453 kts 340°
2026-05-04 19:12 16.24486 99.68020 35801 ft 453 kts 339°
2026-05-04 19:13 16.30475 99.65999 35790 ft 453 kts 339°
2026-05-04 19:13 16.36440 99.63981 35788 ft 453 kts 339°
2026-05-04 19:14 16.42437 99.61958 35790 ft 452 kts 339°
2026-05-04 19:14 16.48409 99.59942 35781 ft 451 kts 339°
2026-05-04 19:15 16.54392 99.57918 35777 ft 452 kts 339°
2026-05-04 19:15 16.60377 99.55900 35785 ft 451 kts 339°
2026-05-04 19:16 16.66365 99.53877 35784 ft 451 kts 339°
2026-05-04 19:16 16.72309 99.51865 35779 ft 451 kts 339°
2026-05-04 19:17 16.78279 99.49841 35769 ft 450 kts 339°
2026-05-04 19:17 16.84246 99.47819 35771 ft 451 kts 339°
2026-05-04 19:18 16.89202 99.46141 35787 ft 451 kts 339°
2026-05-04 19:18 16.96137 99.43786 35767 ft 449 kts 339°
2026-05-04 19:19 17.01089 99.42101 35777 ft 450 kts 339°
2026-05-04 19:19 17.07044 99.40074 35785 ft 450 kts 339°
2026-05-04 19:20 17.12996 99.38046 35784 ft 449 kts 339°
2026-05-04 19:20 17.18948 99.36021 35784 ft 450 kts 339°
2026-05-04 19:21 17.24898 99.33999 35789 ft 449 kts 339°
2026-05-04 19:21 17.30812 99.31979 35791 ft 450 kts 339°
2026-05-04 19:22 17.36753 99.29959 35791 ft 449 kts 339°
2026-05-04 19:22 17.42701 99.27932 35797 ft 449 kts 339°
2026-05-04 19:23 17.48722 99.26147 35734 ft 445 kts 343°
2026-05-04 19:23 17.51746 99.25401 35396 ft 447 kts 344°
2026-05-04 19:23 17.54742 99.24666 34953 ft 447 kts 344°
2026-05-04 19:23 17.57804 99.24056 34147 ft 452 kts 352°
2026-05-04 19:24 17.60986 99.23883 33089 ft 461 kts 355°
2026-05-04 19:24 17.64196 99.23804 32358 ft 461 kts 356°
2026-05-04 19:24 17.67396 99.23731 31771 ft 458 kts 354°
2026-05-04 19:24 17.70567 99.23644 31196 ft 453 kts 355°
2026-05-04 19:25 17.73675 99.23550 30634 ft 448 kts 355°
2026-05-04 19:25 17.76791 99.23447 30071 ft 446 kts 355°
2026-05-04 19:25 17.79871 99.23347 29513 ft 439 kts 355°
2026-05-04 19:25 17.82918 99.23253 28937 ft 435 kts 355°
2026-05-04 19:26 17.85930 99.23154 28368 ft 430 kts 355°
2026-05-04 19:26 17.88909 99.23061 27819 ft 426 kts 355°
2026-05-04 19:26 17.91873 99.22970 27264 ft 423 kts 355°
2026-05-04 19:26 17.94784 99.22880 26709 ft 423 kts 355°
2026-05-04 19:27 17.97718 99.22785 26138 ft 422 kts 355°
2026-05-04 19:27 18.00634 99.22689 25581 ft 419 kts 355°
2026-05-04 19:27 18.03545 99.22595 25034 ft 418 kts 355°
2026-05-04 19:27 18.06451 99.22507 24460 ft 417 kts 355°
2026-05-04 19:28 18.09350 99.22417 23886 ft 414 kts 356°
2026-05-04 19:28 18.12202 99.22325 23325 ft 406 kts 355°
2026-05-04 19:28 18.15025 99.22233 22783 ft 405 kts 355°
2026-05-04 19:28 18.17811 99.22142 22257 ft 404 kts 355°
2026-05-04 19:29 18.20618 99.22053 21707 ft 403 kts 356°
2026-05-04 19:29 18.23416 99.21964 21145 ft 402 kts 356°
2026-05-04 19:29 18.26213 99.21874 20601 ft 401 kts 356°
2026-05-04 19:29 18.28984 99.21785 20077 ft 398 kts 356°
2026-05-04 19:30 18.31752 99.21695 19566 ft 395 kts 356°
2026-05-04 19:30 18.34489 99.21604 19066 ft 392 kts 357°
2026-05-04 19:30 18.37203 99.21522 18616 ft 390 kts 356°
2026-05-04 19:30 18.39907 99.21434 18161 ft 384 kts 356°
2026-05-04 19:31 18.42565 99.21350 17714 ft 378 kts 357°
2026-05-04 19:31 18.45179 99.21268 17278 ft 372 kts 357°
2026-05-04 19:31 18.46885 99.21216 16997 ft 368 kts 356°
2026-05-04 19:31 18.47712 99.21189 16854 ft 366 kts 356°
2026-05-04 19:32 18.50195 99.21100 16431 ft 361 kts 356°
2026-05-04 19:32 18.52684 99.20999 15997 ft 356 kts 356°
2026-05-04 19:32 18.55144 99.20898 15566 ft 353 kts 356°
2026-05-04 19:32 18.57597 99.20793 15133 ft 352 kts 356°
2026-05-04 19:33 18.60046 99.20678 14714 ft 349 kts 356°
2026-05-04 19:33 18.62467 99.20561 14289 ft 348 kts 355°
2026-05-04 19:33 18.64896 99.20439 13865 ft 349 kts 355°
2026-05-04 19:33 18.67325 99.20311 13443 ft 348 kts 355°
2026-05-04 19:34 18.69713 99.20187 13019 ft 341 kts 355°
2026-05-04 19:34 18.72042 99.20069 12605 ft 336 kts 356°
2026-05-04 19:34 18.74367 99.19957 12192 ft 333 kts 356°
2026-05-04 19:34 18.76659 99.19857 11755 ft 326 kts 356°
2026-05-04 19:35 18.78907 99.19775 11315 ft 319 kts 357°
2026-05-04 19:35 18.81135 99.20008 10736 ft 321 kts
2026-05-04 19:35 18.83322 99.20177 10476 ft 310 kts
2026-05-04 19:35 18.85439 99.20295 10322 ft 302 kts
2026-05-04 19:36 18.87543 99.20422 10170 ft 302 kts
2026-05-04 19:36 18.89616 99.20556 9968 ft 301 kts
2026-05-04 19:36 18.91702 99.20701 9677 ft 299 kts
2026-05-04 19:36 18.93787 99.20847 9355 ft 300 kts
2026-05-04 19:37 18.95859 99.20950 9039 ft 299 kts
2026-05-04 19:37 18.97945 99.20967 8833 ft 301 kts 360°
2026-05-04 19:37 19.00041 99.20972 8707 ft 300 kts 359°
2026-05-04 19:37 19.02110 99.20752 8605 ft 299 kts 342°
2026-05-04 19:38 19.03854 99.19684 8588 ft 295 kts 313°
2026-05-04 19:38 19.04930 99.17863 8620 ft 292 kts 285°
2026-05-04 19:38 19.05174 99.15772 8646 ft 281 kts 268°
2026-05-04 19:38 19.05133 99.13762 8617 ft 265 kts 267°
2026-05-04 19:39 19.05092 99.11868 8592 ft 256 kts 267°
2026-05-04 19:39 19.05067 99.10010 8420 ft 248 kts 267°
2026-05-04 19:39 19.05053 99.08210 8131 ft 243 kts 268°
2026-05-04 19:39 19.05044 99.06429 7765 ft 241 kts 268°
2026-05-04 19:40 19.05040 99.04698 7492 ft 236 kts 268°
2026-05-04 19:40 19.05042 99.02989 7310 ft 230 kts 268°
2026-05-04 19:40 19.05047 99.01291 7099 ft 230 kts 269°
2026-05-04 19:40 19.05047 98.99630 6846 ft 220 kts 266°
2026-05-04 19:41 19.04768 98.98069 6644 ft 215 kts 247°
2026-05-04 19:41 19.03939 98.96821 6304 ft 210 kts 216°
2026-05-04 19:41 19.02590 98.96310 5884 ft 207 kts 184°
2026-05-04 19:41 19.01148 98.96310 5468 ft 207 kts 178°
2026-05-04 19:42 18.99693 98.96322 5022 ft 213 kts 179°
2026-05-04 19:42 18.98245 98.96327 4747 ft 206 kts 179°
2026-05-04 19:42 18.96862 98.96330 4572 ft 192 kts 179°
2026-05-04 19:42 18.95527 98.96330 4358 ft 191 kts 179°
2026-05-04 19:43 18.94202 98.96330 4163 ft 191 kts 178°
2026-05-04 19:43 18.92901 98.96321 3984 ft 183 kts 180°
2026-05-04 19:43 18.91651 98.96320 3766 ft 181 kts 179°
2026-05-04 19:43 18.90394 98.96318 3542 ft 180 kts 179°
2026-05-04 19:44 18.89218 98.96319 3289 ft 156 kts 180°
2026-05-04 19:44 18.88210 98.96313 3084 ft 140 kts 180°
2026-05-04 19:44 18.87232 98.96306 2933 ft 140 kts 179°
2026-05-04 19:44 18.86260 98.96309 2777 ft 139 kts 180°
2026-05-04 19:45 18.85291 98.96310 2592 ft 138 kts 180°
2026-05-04 19:45 18.84333 98.96303 2388 ft 137 kts 180°
2026-05-04 19:45 18.83382 98.96298 2205 ft 136 kts 181°
2026-05-04 19:45 18.82435 98.96297 2011 ft 136 kts 181°
2026-05-04 19:46 18.81492 98.96293 1818 ft 136 kts 181°
2026-05-04 19:46 18.80546 98.96291 1596 ft 135 kts 181°
2026-05-04 19:46 18.79614 98.96295 1408 ft 136 kts 181°
2026-05-04 19:46 18.78663 98.96290 1180 ft 135 kts 181°
2026-05-04 19:47 18.77742 98.96287 1049 ft 135 kts 180°
2026-05-04 19:47 18.76918 98.96286 1039 ft 97 kts 180°
2026-05-04 19:47 18.76425 98.96285 1034 ft 14 kts 180°
2026-05-04 19:47 18.76318 98.96286 1032 ft 31 kts 180°
2026-05-04 19:48 18.76194 98.96316 1031 ft 14 kts 115°
2026-05-04 19:48 18.76188 98.96388 1031 ft 7 kts 89°
2026-05-04 19:48 18.76188 98.96449 1031 ft 10 kts 89°
2026-05-04 19:48 18.76223 98.96512 1031 ft 12 kts 17°
2026-05-04 19:49 18.76320 98.96516 1032 ft 15 kts
2026-05-04 19:49 18.76436 98.96516 1033 ft 18 kts 360°
2026-05-04 19:49 18.76566 98.96516 1035 ft 20 kts
2026-05-04 19:49 18.76668 98.96516 1036 ft 11 kts 360°
2026-05-04 19:50 18.76727 98.96533 1036 ft 8 kts 52°
2026-05-04 19:50 18.76739 98.96597 1037 ft 10 kts 90°
2026-05-04 19:50 18.76786 98.96647 1037 ft 12 kts
2026-05-04 19:50 18.76860 98.96646 1038 ft 11 kts 359°
2026-05-04 19:51 18.76928 98.96646 1038 ft 7 kts 359°
2026-05-04 19:51 18.76970 98.96647 1039 ft 6 kts 20°
2026-05-04 19:51 18.76980 98.96677 1039 ft 1 kts 90°
2026-05-04 19:51 18.76981 98.96695 1039 ft 4 kts 89°
2026-05-04 19:52 18.76980 98.96732 1039 ft 6 kts 92°
2026-05-04 19:52 18.76980 98.96740 1039 ft 0 kts 92°